Find Ekran

NORAD ID: 9503 Int'l Des: 1976-107 Owner: MSVYAZ Country: SU operational
HEOCIRCULARGSO

現在のビュー

3D地球を読み込み中...

Ekranについて

説明を読み込み中...

次回通過

Passes for default location (London). Set your location on the main map for personalized predictions.

高度履歴

Loading altitude history...

軌道要素

1 09503U 76107A 26146.16971858 -.00000119 00000-0 00000-0 0 9994
2 09503 3.6230 270.4508 0069356 188.0666 285.8820 1.00221223198298
Epoch: May 26, 2026 • Age: 10 hours

現在のステータス

高度 35704.0 km
速度 3.08 km/s
衛星直下点 -3.58°S, 80.2°E
タイプ other

Most Searched